Regional Weather Roundup
Issued by NWS Bismarck, ND

Home | Current Version | Previous Version | Text Only | Print | Product List | Glossary On
Versions: 1 2 3 4 5 6 7 8 9 10 11 12 13 14 15 16 17 18 19 20 21 22 23 24 25 26 27 28 29 30 31 32 33 34 35 36 37 38 39 40 41 42 43 44 45 46 47 48 49 50
000
ASUS43 KBIS 182110
RWRBIS

NWR BROADCAST TEXT
NATIONAL WEATHER SERVICE BISMARCK ND
400 PM CDT WED OCT 18 2017

NOTE: "FAIR" INDICATES FEW OR NO CLOUDS BELOW 12,000 FEET WITH NO
SIGNIFICANT WEATHER AND/OR OBSTRUCTIONS TO VISIBILITY.


CITY           SKY/WX    TMP DP  RH WIND       PRES   REMARKS
WILLISTON      CLOUDY    55  22  27 W17G26    29.93F
MINOT          SUNNY     58  18  21 W18G30    29.88S
MINOT AFB      SUNNY     56  18  22 W28G37    29.85S
BISMARCK       SUNNY     61  21  21 W16       29.97F
DICKINSON      SUNNY     59  24  26 W15       29.96F
GARRISON         N/A     56  20  24 W23G35    29.92F
HETTINGER ARPT SUNNY     58  21  24 W13       30.00F
JAMESTOWN      MOSUNNY   59  19  21 W21G28    29.91S
CARRINGTON     FAIR      57  21  24 W24G38    29.91R
HAZEN          FAIR      57  19  23 W21G26    29.96S
LINTON         FAIR      61  23  23 W16G23    29.99F
RUGBY          FAIR      55  12  18 W33G47    29.82S
STANLEY        FAIR      54  19  26 W26G35    29.92S
TIOGA          FAIR      52  19  28 W28G35    29.91S
WATFORD CITY   FAIR      55  21  26 W18G30    29.93F
$$

CITY           SKY/WX    TMP DP  RH WIND       PRES   REMARKS
GRAND FORKS    MOSUNNY   61  14  16 W23G35    29.80S
GRAND FORKS AF SUNNY     60  12  15 W26       29.81R
DEVILS LAKE    SUNNY     57  17  21 W30G39    29.83R
FARGO          CLOUDY    61  14  16 W25G33    29.87R
CANDO          FAIR      55  10  16 W33G46    29.82R
CAVALIER       FAIR      59  10  14 W30G41    29.73R
GRAFTON        FAIR      59  16  18 W33G47    29.79R
GWINNER        CLEAR     59  19  21 W16G23    29.94R
LANGDON        FAIR      57  10  15 W32G47    29.75R
ROLLA          FAIR      54  10  17 W28G44    29.77R
WALHALLA       FAIR     N/A N/A N/A W24G38    29.72R
$$

CITY           SKY/WX    TMP DP  RH WIND       PRES   REMARKS
ABERDEEN       MOSUNNY   61  27  27 W10       30.00S
MOBRIDGE       SUNNY     64  22  20 NW9       29.99S
BUFFALO          N/A     62  25  24 W8G20     29.94F
RAPID CITY     SUNNY     64  25  22 SE12      30.05F
GLASGOW        SUNNY     59  23  25 SW13      29.89F
SIDNEY         SUNNY     59  24  26 SW16G24   29.94F
WOLF POINT     SUNNY     61  19  19 SW16G25   29.92F
GLENDIVE       SUNNY     60  24  25 W14       29.96F
MILES CITY     SUNNY     61  25  25 S13       29.95F
BAKER          SUNNY     58  24  27 W15       29.99F
$$

CITY           SKY/WX    TMP DP  RH WIND       PRES   REMARKS
BILLINGS       PTSUNNY   63  30  28 SE6       29.92F
GREAT FALLS    CLOUDY    63  30  28 SW25G36   29.86F
REGINA         MOSUNNY   54  12  19 W32G41    29.80R
ESTEVAN        MOSUNNY   54  16  22 W23G35    29.84S
$$





USA.gov is the U.S. government's official web portal to all federal, state and local government web resources and services.